When you browse on this site, cookies collect data to enhance your experience and personalize the content and advertising you see.
Visit our Privacy Policy to learn more. By continuing to use the site, you agree to this use of cookies and data.
  • Em Portugal
  • Lista de países
  • Para 7 dias
  • Temperatura da água
  • Mapas de satélite
  • Mapa do tempo
  • Widgets de tempo
  • user-avatar
    Iniciar Sessão

    Previsão horária em Poplin

    Hoje, 16 Janeiro, Quarta-feira

    Tempo Temperatura Precipitação Vento Pressão Humidade
    00:00 -6°C° 0.2 mm 3 m/s 722 mmHg 92%
    01:00 -5°C° 0.2 mm 2 m/s 722 mmHg 95%
    02:00 -3°C° 0 mm 1 m/s 722 mmHg 97%
    03:00 -6°C° 0.1 mm 2 m/s 722 mmHg 97%
    04:00 -6°C° 0.1 mm 2 m/s 723 mmHg 97%
    05:00 -6°C° 0.1 mm 2 m/s 724 mmHg 97%
    06:00 -6°C° 0.1 mm 2 m/s 724 mmHg 96%
    07:00 -6°C° 0.1 mm 2 m/s 725 mmHg 96%
    08:00 -7°C° 0 mm 3 m/s 726 mmHg 96%
    09:00 -6°C° 0 mm 3 m/s 727 mmHg 95%
    10:00 -6°C° 0 mm 3 m/s 727 mmHg 95%
    11:00 -5°C° 0 mm 2 m/s 728 mmHg 95%
    12:00 -5°C° 0 mm 3 m/s 728 mmHg 94%
    13:00 -4°C° 0 mm 3 m/s 728 mmHg 92%
    14:00 -4°C° 0 mm 3 m/s 728 mmHg 91%
    15:00 -4°C° 0 mm 3 m/s 728 mmHg 93%
    16:00 -4°C° 0 mm 3 m/s 728 mmHg 94%
    17:00 -4°C° 0 mm 3 m/s 728 mmHg 95%
    18:00 -4°C° 0.1 mm 4 m/s 727 mmHg 95%
    19:00 -3°C° 0.1 mm 4 m/s 727 mmHg 95%
    20:00 -2°C° 0.1 mm 5 m/s 727 mmHg 96%
    21:00 -2°C° 0.1 mm 5 m/s 727 mmHg 96%
    22:00 -1°C° 0.1 mm 5 m/s 726 mmHg 97%
    23:00 -2°C° 0.1 mm 6 m/s 726 mmHg 97%

    Amanhã, 17 Janeiro, Quinta-feira

    Tempo Temperatura Precipitação Vento Pressão Humidade
    00:00 -2°C° 0.1 mm 6 m/s 726 mmHg 97%
    01:00 -2°C° 0.1 mm 6 m/s 725 mmHg 97%
    02:00 -2°C° 0.1 mm 6 m/s 725 mmHg 97%
    03:00 -2°C° 0.2 mm 6 m/s 724 mmHg 97%
    04:00 -2°C° 0.2 mm 7 m/s 724 mmHg 96%
    05:00 -2°C° 0.2 mm 7 m/s 724 mmHg 96%
    06:00 -2°C° 0.2 mm 7 m/s 723 mmHg 94%
    07:00 -2°C° 0.2 mm 7 m/s 723 mmHg 93%
    08:00 -4°C° 0.2 mm 8 m/s 722 mmHg 91%
    09:00 -4°C° 0.1 mm 8 m/s 722 mmHg 90%
    10:00 -2°C° 0.1 mm 8 m/s 722 mmHg 90%
    11:00 -2°C° 0.1 mm 8 m/s 721 mmHg 89%
    12:00 -2°C° 0.2 mm 8 m/s 721 mmHg 90%
    13:00 -2°C° 0.2 mm 8 m/s 721 mmHg 90%
    14:00 -2°C° 0.2 mm 8 m/s 721 mmHg 90%
    15:00 -2°C° 0.1 mm 7 m/s 722 mmHg 91%
    16:00 -2°C° 0.1 mm 7 m/s 722 mmHg 91%
    17:00 -2°C° 0.1 mm 6 m/s 722 mmHg 91%
    18:00 -2°C° 0 mm 6 m/s 723 mmHg 90%
    19:00 -2°C° 0 mm 6 m/s 723 mmHg 89%
    20:00 -2°C° 0 mm 6 m/s 723 mmHg 88%
    21:00 -3°C° 0 mm 6 m/s 723 mmHg 88%
    22:00 -3°C° 0 mm 6 m/s 723 mmHg 87%
    23:00 -3°C° 0 mm 6 m/s 723 mmHg 86%

    Depois de amanhã, 18 Janeiro, Sexta-feira

    Tempo Temperatura Precipitação Vento Pressão Humidade
    00:00 -3°C° 0 mm 6 m/s 724 mmHg 87%
    01:00 -4°C° 0 mm 6 m/s 724 mmHg 89%
    02:00 -4°C° 0 mm 6 m/s 724 mmHg 90%
    03:00 -4°C° 0.1 mm 5 m/s 724 mmHg 91%
    04:00 -3°C° 0.1 mm 4 m/s 723 mmHg 92%
    05:00 -2°C° 0.1 mm 4 m/s 723 mmHg 94%
    06:00 -2°C° 0.3 mm 4 m/s 724 mmHg 93%
    07:00 -2°C° 0.3 mm 5 m/s 724 mmHg 93%
    08:00 -2°C° 0.3 mm 5 m/s 724 mmHg 92%
    09:00 -4°C° 1.1 mm 5 m/s 725 mmHg 93%
    10:00 -5°C° 1.1 mm 6 m/s 726 mmHg 94%
    11:00 -6°C° 1.1 mm 6 m/s 726 mmHg 95%
    12:00 -6°C° 0.2 mm 5 m/s 727 mmHg 90%
    13:00 -6°C° 0.2 mm 5 m/s 728 mmHg 86%
    14:00 -7°C° 0.2 mm 5 m/s 729 mmHg 82%
    15:00 -7°C° 0 mm 4 m/s 730 mmHg 84%
    16:00 -7°C° 0 mm 4 m/s 731 mmHg 86%
    17:00 -6°C° 0 mm 3 m/s 732 mmHg 88%
    18:00 -7°C° 0 mm 4 m/s 733 mmHg 88%
    19:00 -7°C° 0 mm 4 m/s 733 mmHg 89%
    20:00 -7°C° 0 mm 5 m/s 734 mmHg 89%
    21:00 -7°C° 0 mm 5 m/s 735 mmHg 87%
    22:00 -8°C° 0 mm 5 m/s 735 mmHg 86%
    23:00 -8°C° 0 mm 5 m/s 735 mmHg 84%

    19 Janeiro, Sábado

    Tempo Temperatura Precipitação Vento Pressão Humidade
    00:00 -8°C° 0 mm 5 m/s 736 mmHg 85%
    01:00 -8°C° 0 mm 4 m/s 736 mmHg 85%
    02:00 -8°C° 0 mm 4 m/s 737 mmHg 85%
    03:00 -8°C° 0 mm 4 m/s 737 mmHg 87%
    04:00 -8°C° 0 mm 4 m/s 737 mmHg 89%
    05:00 -8°C° 0 mm 4 m/s 737 mmHg 91%
    06:00 -9°C° 0 mm 4 m/s 737 mmHg 92%
    07:00 -9°C° 0 mm 4 m/s 737 mmHg 93%
    08:00 -9°C° 0 mm 4 m/s 737 mmHg 94%
    09:00 -8°C° 0 mm 4 m/s 737 mmHg 93%
    10:00 -8°C° 0 mm 5 m/s 738 mmHg 92%
    11:00 -7°C° 0 mm 5 m/s 738 mmHg 91%
    12:00 -6°C° 0 mm 5 m/s 738 mmHg 90%
    13:00 -6°C° 0 mm 5 m/s 738 mmHg 90%
    14:00 -5°C° 0 mm 5 m/s 738 mmHg 89%
    15:00 -5°C° 0 mm 5 m/s 738 mmHg 89%
    16:00 -5°C° 0 mm 5 m/s 738 mmHg 90%
    17:00 -5°C° 0 mm 5 m/s 738 mmHg 90%
    18:00 -4°C° 0.1 mm 4 m/s 738 mmHg 91%
    19:00 -4°C° 0.1 mm 4 m/s 739 mmHg 92%
    20:00 -5°C° 0.1 mm 3 m/s 739 mmHg 94%
    21:00 -5°C° 0 mm 3 m/s 739 mmHg 94%
    22:00 -5°C° 0 mm 3 m/s 739 mmHg 95%
    23:00 -5°C° 0 mm 3 m/s 739 mmHg 95%

    20 Janeiro, Domingo

    Tempo Temperatura Precipitação Vento Pressão Humidade
    00:00 -5°C° 0 mm 2 m/s 739 mmHg 95%
    01:00 -5°C° 0 mm 2 m/s 739 mmHg 95%
    02:00 -6°C° 0 mm 2 m/s 739 mmHg 96%
    03:00 -6°C° 0 mm 2 m/s 739 mmHg 95%
    04:00 -6°C° 0 mm 2 m/s 738 mmHg 95%
    05:00 -6°C° 0 mm 2 m/s 738 mmHg 95%
    06:00 -7°C° 0 mm 3 m/s 738 mmHg 95%
    07:00 -7°C° 0 mm 3 m/s 738 mmHg 94%
    08:00 -7°C° 0 mm 3 m/s 738 mmHg 94%
    09:00 -7°C° 0 mm 3 m/s 738 mmHg 93%
    10:00 -7°C° 0 mm 3 m/s 738 mmHg 93%
    11:00 -7°C° 0 mm 3 m/s 738 mmHg 92%
    12:00 -6°C° 0 mm 3 m/s 737 mmHg 92%
    13:00 -5°C° 0 mm 3 m/s 737 mmHg 92%
    14:00 -4°C° 0 mm 3 m/s 737 mmHg 92%
    15:00 -5°C° 0 mm 3 m/s 737 mmHg 93%
    16:00 -5°C° 0 mm 3 m/s 737 mmHg 94%
    17:00 -6°C° 0 mm 3 m/s 736 mmHg 95%
    18:00 -7°C° 0.1 mm 4 m/s 736 mmHg 94%
    19:00 -5°C° 0.1 mm 4 m/s 736 mmHg 94%
    20:00 -6°C° 0.1 mm 5 m/s 736 mmHg 94%
    21:00 -6°C° 0.5 mm 5 m/s 736 mmHg 94%
    22:00 -6°C° 0.5 mm 5 m/s 736 mmHg 95%
    23:00 -6°C° 0.5 mm 5 m/s 736 mmHg 95%

    21 Janeiro, Segunda-feira

    Tempo Temperatura Precipitação Vento Pressão Humidade
    00:00 -7°C° 0.2 mm 4 m/s 736 mmHg 93%
    01:00 -8°C° 0.2 mm 4 m/s 736 mmHg 92%
    02:00 -8°C° 0.2 mm 4 m/s 736 mmHg 90%
    03:00 -9°C° 0 mm 4 m/s 736 mmHg 90%
    04:00 -10°C° 0 mm 5 m/s 736 mmHg 90%
    05:00 -10°C° 0 mm 5 m/s 736 mmHg 90%
    06:00 -10°C° 0 mm 5 m/s 737 mmHg 90%
    07:00 -10°C° 0 mm 5 m/s 737 mmHg 90%
    08:00 -10°C° 0 mm 6 m/s 738 mmHg 90%
    09:00 -10°C° 0 mm 5 m/s 739 mmHg 89%
    10:00 -10°C° 0 mm 5 m/s 740 mmHg 89%
    11:00 -10°C° 0 mm 4 m/s 740 mmHg 89%
    12:00 -9°C° 0 mm 4 m/s 741 mmHg 88%
    13:00 -9°C° 0 mm 4 m/s 741 mmHg 86%
    14:00 -8°C° 0 mm 4 m/s 742 mmHg 85%
    15:00 -8°C° 0 mm 3 m/s 742 mmHg 87%
    16:00 -9°C° 0 mm 3 m/s 742 mmHg 89%
    17:00 -9°C° 0 mm 3 m/s 742 mmHg 90%
    18:00 -9°C° 0 mm 3 m/s 742 mmHg 90%
    19:00 -9°C° 0 mm 3 m/s 742 mmHg 90%
    20:00 -9°C° 0 mm 3 m/s 742 mmHg 90%
    21:00 -9°C° 0 mm 3 m/s 742 mmHg 90%
    22:00 -9°C° 0 mm 3 m/s 743 mmHg 90%
    23:00 -8°C° 0 mm 3 m/s 743 mmHg 89%
    Mostrar mais